Location: Acts Church of Fort Worth
(32.6786°N, 97.2668°W)
Time: 22:44:47
(UTC+00:00)

ARIANE 6 FM1 Upper Stage - Pass Details

Date: 18 January 2026
Orbit: 522 x 609 km, 62.0° (Epoch: 13 February)

Event Time Altitude Azimuth Distance (km) Brightness Sun altitude
Rises 01:29:59 0° 191° (S) 2,734 6.5 -21.2°
Reaches altitude 10° 01:32:21 10° 182° (S) 1,827 5.4 -21.7°
Enters shadow 01:34:23 24° 162° (SSE) 1,165 4.2 -22.2°
